This demonstration page uses our WeatherBlox Daily Observations layout. Learn more.

Left ArrowRight Arrow

Hourly Observations for May 5, 2021

Temp ( °F °C ) Dew Point ( °F °C ) Humidity (%) Winds ( mph kmh ) Pressure ( in mb ) Visibility ( mi km ) Precip ( " mm )
12:53 am 00:53 Clear 62 16.7 45 7.2 54 54 Calm 29.90 1012 10 16 0.00 0.00
1:53 am 01:53 Clear 58 14.4 45 7.2 62 62 Calm 29.90 1012 10 16 0.00 0.00
2:53 am 02:53 Clear 60 15.6 45 7.2 58 58 Calm 29.89 1012 10 16 0.00 0.00
3:53 am 03:53 Clear 56 13.3 44 6.7 65 65 Calm 29.89 1012 10 16 0.00 0.00
4:53 am 04:53 Clear 62 16.7 40 4.4 44 44 NNW 6 9 29.88 1012 10 16 0.00 0.00
5:53 am 05:53 Clear 60 15.6 40 4.4 47 47 NW 6 9 29.88 1012 10 16 0.00 0.00
6:53 am 06:53 Sunny 61 16.1 43 6.1 52 52 NNW 5 7 29.89 1012 10 16 0.00 0.00
7:53 am 07:53 Sunny 69 20.6 43 6.1 39 39 NW 5 7 29.90 1013 10 16 0.00 0.00
8:53 am 08:53 Sunny 76 24.4 40 4.4 27 27 N 7 11 29.89 1012 10 16 0.00 0.00
9:53 am 09:53 Sunny 80 26.7 39 3.9 23 23 VRB 7 11 29.89 1012 10 16 0.00 0.00
10:22 am 10:22 Mostly Sunny 81 27.2 41 5 24 24 N 6 9 29.89 1012 10 16 0.00 0.00
10:53 am 10:53 Sunny 84 28.9 41 5 22 22 NNW 5 7 29.88 1012 N/A 0.00 0.00
11:53 am 11:53 Sunny 86 30 38 3.3 18 18 VRB 3 6 29.87 1012 10 16 0.00 0.00
12:53 pm 12:53 Sunny 88 31.1 37 2.8 16 16 Calm 29.85 1011 10 16 0.00 0.00
1:53 pm 13:53 Sunny 90 32.2 38 3.3 16 16 SW 8 13 29.83 1010 10 16 0.00 0.00
2:53 pm 14:53 Sunny 92 33.3 36 2.2 14 14 SE 8 13 29.80 1009 10 16 0.00 0.00
3:53 pm 15:53 Sunny 93 33.9 30 -1.1 10 10 SSE 6 9 29.78 1009 10 16 0.00 0.00
4:53 pm 16:53 Sunny 94 34.4 26 -3.3 9 9 SSE 13 20 29.76 1008 10 16 0.00 0.00
5:53 pm 17:53 Sunny 93 33.9 27 -2.8 9 9 S 14 22 29.76 1008 10 16 0.00 0.00
6:53 pm 18:53 Sunny 90 32.2 33 0.6 13 13 SSE 12 19 29.76 1008 10 16 0.00 0.00
7:53 pm 19:53 Sunny 86 30 34 1.1 15 15 S 9 15 29.76 1008 10 16 0.00 0.00
8:53 pm 20:53 Clear 84 28.9 39 3.9 20 20 SSW 7 11 29.78 1008 10 16 0.00 0.00
9:53 pm 21:53 Clear 81 27.2 40 4.4 23 23 SW 5 7 29.80 1009 10 16 0.00 0.00
10:53 pm 22:53 Clear 72 22.2 43 6.1 35 35 NE 6 9 29.80 1009 10 16 0.00 0.00
11:53 pm 23:53 Clear 71 21.7 42 5.6 35 35 VRB 3 6 29.82 1010 10 16 0.00 0.00

Powered by AerisWeather